TimeAKST,TemperatureF,Dew PointF,Humidity,Sea Level PressureIn,VisibilityMPH,Wind Direction,Wind SpeedMPH,Gust SpeedMPH,PrecipitationIn,Events,Conditions,WindDirDegrees,DateUTC
12:11 AM,26.6,24.8,93,29.34,1.2,Calm,Calm,-,N/A,,Mostly Cloudy,0,2013-02-24 09:11:00
12:18 AM,26.6,26.6,100,29.34,1.8,Calm,Calm,-,N/A,,Mostly Cloudy,0,2013-02-24 09:18:00
12:21 AM,26.6,24.8,93,29.34,3.0,Calm,Calm,-,N/A,,Mostly Cloudy,0,2013-02-24 09:21:00
12:33 AM,26.6,24.8,93,29.34,9.0,Calm,Calm,-,N/A,,Mostly Cloudy,0,2013-02-24 09:33:00
12:53 AM,28.0,26.1,92,29.34,7.0,Calm,Calm,-,N/A,,Mostly Cloudy,0,2013-02-24 09:53:00
1:53 AM,28.0,27.0,96,29.36,10.0,NW,3.5,-,N/A,,Overcast,320,2013-02-24 10:53:00
2:53 AM,28.9,28.0,96,29.35,10.0,NW,3.5,-,N/A,,Overcast,320,2013-02-24 11:53:00
3:25 AM,30.2,28.4,93,29.36,2.0,West,3.5,-,0.00,Snow,Light Snow,270,2013-02-24 12:25:00
3:28 AM,30.2,28.4,93,29.36,1.2,Calm,Calm,-,0.00,Snow,Light Snow,0,2013-02-24 12:28:00
3:33 AM,30.2,28.4,93,29.36,0.8,Calm,Calm,-,0.00,Snow,Light Snow,0,2013-02-24 12:33:00
3:39 AM,30.2,28.4,93,29.36,1.2,ENE,4.6,-,0.00,Snow,Light Snow,60,2013-02-24 12:39:00
3:44 AM,28.4,28.4,100,29.36,3.0,ENE,3.5,-,0.00,Snow,Light Snow,70,2013-02-24 12:44:00
3:51 AM,28.4,28.4,100,29.36,7.0,Calm,Calm,-,0.00,Snow,Light Snow,0,2013-02-24 12:51:00
3:53 AM,28.9,28.0,96,29.36,8.0,Calm,Calm,-,0.00,,Overcast,0,2013-02-24 12:53:00
4:09 AM,30.2,28.4,93,29.36,10.0,NW,4.6,-,N/A,,Overcast,320,2013-02-24 13:09:00
4:22 AM,30.2,28.4,93,29.36,7.0,NW,3.5,-,0.00,Snow,Light Snow,310,2013-02-24 13:22:00
4:44 AM,30.2,28.4,93,29.36,1.5,Calm,Calm,-,0.00,Snow,Light Snow,0,2013-02-24 13:44:00
4:49 AM,30.2,28.4,93,29.37,0.8,Calm,Calm,-,0.00,Snow,Light Snow,0,2013-02-24 13:49:00
4:53 AM,30.0,28.9,96,29.37,1.0,Calm,Calm,-,0.00,Snow,Light Snow,0,2013-02-24 13:53:00
4:57 AM,30.2,28.4,93,29.37,2.0,Calm,Calm,-,0.00,Snow,Light Snow,0,2013-02-24 13:57:00
5:07 AM,30.2,28.4,93,29.37,6.0,North,3.5,-,0.00,Snow,Light Snow,10,2013-02-24 14:07:00
5:53 AM,30.9,28.0,89,29.37,10.0,Calm,Calm,-,0.00,,Overcast,0,2013-02-24 14:53:00
6:18 AM,30.2,28.4,93,29.38,1.8,Calm,Calm,-,0.00,Snow,Light Snow,0,2013-02-24 15:18:00
6:53 AM,30.0,28.9,96,29.39,1.5,Calm,Calm,-,0.00,Snow,Light Snow,0,2013-02-24 15:53:00
7:01 AM,30.2,28.4,93,29.39,2.0,North,3.5,-,0.00,Snow,Light Snow,360,2013-02-24 16:01:00
7:20 AM,30.2,28.4,93,29.39,2.5,Calm,Calm,-,0.00,Snow,Light Snow,0,2013-02-24 16:20:00
7:35 AM,30.2,28.4,93,29.39,1.5,Calm,Calm,-,0.00,Snow,Light Snow,0,2013-02-24 16:35:00
7:51 AM,30.2,30.2,100,29.40,1.2,Calm,Calm,-,0.00,Snow,Light Snow,0,2013-02-24 16:51:00
7:53 AM,30.9,30.0,96,29.40,1.2,Calm,Calm,-,0.00,Snow,Light Snow,0,2013-02-24 16:53:00
8:01 AM,30.2,30.2,100,29.40,0.8,Calm,Calm,-,0.00,Snow,Light Snow,0,2013-02-24 17:01:00
8:10 AM,30.2,30.2,100,29.40,0.8,Calm,Calm,-,0.00,Snow,Light Snow,0,2013-02-24 17:10:00
8:27 AM,30.2,30.2,100,29.41,0.5,NNW,3.5,-,0.00,Fog-Snow,Snow,330,2013-02-24 17:27:00
8:53 AM,30.9,30.0,96,29.41,0.5,NW,3.5,-,0.00,Fog-Snow,Snow,310,2013-02-24 17:53:00
9:48 AM,32.0,30.2,93,29.42,1.0,Calm,Calm,-,0.00,Snow,Light Snow,0,2013-02-24 18:48:00
9:51 AM,32.0,30.2,93,29.42,1.2,Calm,Calm,-,0.00,Snow,Light Snow,0,2013-02-24 18:51:00
9:53 AM,32.0,30.9,96,29.43,1.5,Calm,Calm,-,0.00,Snow,Light Snow,0,2013-02-24 18:53:00
10:10 AM,32.0,30.2,93,29.43,1.0,Calm,Calm,-,0.00,Snow,Light Snow,0,2013-02-24 19:10:00
10:18 AM,32.0,30.2,93,29.43,2.0,Calm,Calm,-,0.00,Snow,Light Snow,0,2013-02-24 19:18:00
10:27 AM,32.0,30.2,93,29.43,4.0,Calm,Calm,-,0.00,Snow,Light Snow,0,2013-02-24 19:27:00
10:40 AM,30.2,30.2,100,29.44,1.5,Calm,Calm,-,0.00,Snow,Light Snow,0,2013-02-24 19:40:00
10:42 AM,32.0,30.2,93,29.44,0.8,Calm,Calm,-,0.00,Snow,Light Snow,0,2013-02-24 19:42:00
10:51 AM,32.0,30.2,93,29.45,0.2,Calm,Calm,-,0.00,Fog-Snow,Snow,0,2013-02-24 19:51:00
10:53 AM,32.0,30.9,96,29.45,0.2,Calm,Calm,-,0.00,Fog-Snow,Snow,0,2013-02-24 19:53:00
11:05 AM,32.0,30.2,93,29.45,0.2,Calm,Calm,-,0.00,Fog-Snow,Heavy Snow,0,2013-02-24 20:05:00
11:18 AM,32.0,30.2,93,29.46,1.0,Calm,Calm,-,0.00,Snow,Light Snow,0,2013-02-24 20:18:00
11:20 AM,32.0,30.2,93,29.46,1.2,NE,3.5,-,0.00,Snow,Light Snow,40,2013-02-24 20:20:00
11:33 AM,32.0,30.2,93,29.46,0.8,NNE,3.5,-,0.00,Snow,Light Snow,20,2013-02-24 20:33:00
11:47 AM,33.8,30.2,87,29.47,1.0,Calm,Calm,-,0.00,Snow,Light Snow,0,2013-02-24 20:47:00
11:53 AM,32.0,32.0,100,29.47,0.8,Calm,Calm,-,0.00,Snow,Light Snow,0,2013-02-24 20:53:00
12:04 PM,32.0,32.0,100,29.48,0.2,Calm,Calm,-,0.00,Fog-Snow,Heavy Snow,0,2013-02-24 21:04:00
12:53 PM,33.1,32.0,96,29.49,0.2,Calm,Calm,-,0.01,Fog-Snow,Heavy Snow,0,2013-02-24 21:53:00
1:53 PM,33.1,33.1,100,29.49,0.5,Calm,Calm,-,0.00,Fog-Snow,Snow,0,2013-02-24 22:53:00
2:53 PM,33.1,32.0,96,29.51,0.5,Calm,Calm,-,0.01,Fog-Snow,Snow,0,2013-02-24 23:53:00
3:32 PM,33.8,32.0,93,29.52,1.0,Calm,Calm,-,0.00,Snow,Light Snow,0,2013-02-25 00:32:00
3:40 PM,33.8,33.8,100,29.52,1.5,Calm,Calm,-,0.00,Snow,Light Snow,0,2013-02-25 00:40:00
3:51 PM,33.8,32.0,93,29.52,2.0,Calm,Calm,-,0.00,Snow,Light Snow,0,2013-02-25 00:51:00
3:53 PM,33.1,32.0,96,29.52,2.5,Calm,Calm,-,0.00,Snow,Light Snow,0,2013-02-25 00:53:00
4:09 PM,33.8,33.8,100,29.53,10.0,Calm,Calm,-,0.01,,Overcast,0,2013-02-25 01:09:00
4:31 PM,33.8,32.0,93,29.54,2.5,SW,3.5,-,0.01,Snow,Light Snow,220,2013-02-25 01:31:00
4:37 PM,33.8,32.0,93,29.55,1.0,SSW,3.5,-,0.01,Snow,Light Snow,200,2013-02-25 01:37:00
4:42 PM,33.8,32.0,93,29.55,0.5,Calm,Calm,-,0.01,Fog-Snow,Snow,0,2013-02-25 01:42:00
4:51 PM,33.8,32.0,93,29.55,0.5,WSW,4.6,-,0.01,Fog-Snow,Snow,240,2013-02-25 01:51:00
4:53 PM,33.1,32.0,96,29.55,0.5,WSW,4.6,-,0.01,Fog-Snow,Snow,240,2013-02-25 01:53:00
5:14 PM,33.8,32.0,93,29.55,1.2,SSE,4.6,-,0.00,Snow,Light Snow,160,2013-02-25 02:14:00
5:21 PM,33.8,32.0,93,29.55,1.5,ENE,3.5,-,0.00,Snow,Light Snow,60,2013-02-25 02:21:00
5:29 PM,33.8,32.0,93,29.55,2.0,ENE,5.8,-,0.00,Snow,Light Snow,70,2013-02-25 02:29:00
5:32 PM,33.8,32.0,93,29.55,3.0,ENE,5.8,-,0.00,Snow,Light Snow,70,2013-02-25 02:32:00
5:46 PM,33.8,32.0,93,29.56,9.0,ENE,4.6,-,0.00,,Overcast,60,2013-02-25 02:46:00
5:53 PM,32.0,32.0,100,29.56,10.0,WNW,3.5,-,0.00,,Mostly Cloudy,300,2013-02-25 02:53:00
6:24 PM,30.2,30.2,100,29.57,1.8,Calm,Calm,-,N/A,,Mostly Cloudy,0,2013-02-25 03:24:00
6:30 PM,30.2,30.2,100,29.57,0.8,Calm,Calm,-,N/A,,Scattered Clouds,0,2013-02-25 03:30:00
6:46 PM,30.2,30.2,100,29.57,3.0,NNW,3.5,-,N/A,,Scattered Clouds,340,2013-02-25 03:46:00
6:53 PM,30.0,30.0,100,29.58,7.0,NW,3.5,-,N/A,,Partly Cloudy,320,2013-02-25 03:53:00
7:44 PM,28.4,28.4,100,29.59,1.5,Calm,Calm,-,N/A,,Scattered Clouds,0,2013-02-25 04:44:00
7:46 PM,28.4,28.4,100,29.59,0.8,Calm,Calm,-,N/A,,Scattered Clouds,0,2013-02-25 04:46:00
7:53 PM,28.0,27.0,96,29.59,0.2,Calm,Calm,-,N/A,Fog,Light Freezing Fog,0,2013-02-25 04:53:00
8:02 PM,28.4,28.4,100,29.60,1.0,Calm,Calm,-,N/A,,Mist,0,2013-02-25 05:02:00
8:13 PM,26.6,24.8,93,29.60,0.5,Calm,Calm,-,N/A,Fog,Light Freezing Fog,0,2013-02-25 05:13:00
8:42 PM,24.8,24.8,100,29.61,0.2,Calm,Calm,-,N/A,Fog,Light Freezing Fog,0,2013-02-25 05:42:00
8:51 PM,26.6,26.6,100,29.61,1.0,NW,3.5,-,N/A,,Mostly Cloudy,320,2013-02-25 05:51:00
8:53 PM,28.0,27.0,96,29.61,1.8,Calm,Calm,-,N/A,,Overcast,0,2013-02-25 05:53:00
8:55 PM,28.4,28.4,100,29.61,3.0,Calm,Calm,-,N/A,,Overcast,0,2013-02-25 05:55:00
8:59 PM,28.4,28.4,100,29.61,2.0,Calm,Calm,-,N/A,,Overcast,0,2013-02-25 05:59:00
9:02 PM,28.4,28.4,100,29.61,1.0,NNE,3.5,-,N/A,,Overcast,20,2013-02-25 06:02:00
9:09 PM,28.4,28.4,100,29.61,0.5,NNW,4.6,-,N/A,Fog,Light Freezing Fog,340,2013-02-25 06:09:00
9:21 PM,28.4,26.6,93,29.61,1.0,North,4.6,-,N/A,,Overcast,360,2013-02-25 06:21:00
9:23 PM,28.4,28.4,100,29.61,1.2,North,4.6,-,N/A,,Overcast,350,2013-02-25 06:23:00
9:31 PM,28.4,26.6,93,29.61,1.2,North,3.5,-,N/A,,Mostly Cloudy,360,2013-02-25 06:31:00
9:37 PM,28.4,26.6,93,29.61,3.0,North,4.6,-,N/A,,Mostly Cloudy,360,2013-02-25 06:37:00
9:53 PM,27.0,26.1,96,29.62,10.0,NNE,4.6,-,N/A,,Partly Cloudy,30,2013-02-25 06:53:00
10:53 PM,27.0,25.0,92,29.62,10.0,Calm,Calm,-,N/A,,Overcast,0,2013-02-25 07:53:00
11:53 PM,27.0,25.0,92,29.63,10.0,North,3.5,-,N/A,,Overcast,350,2013-02-25 08:53:00